RH
5 7 9 22 24 27 22 34 32 28 30 56 56 99 100 100 100 100 100 100 100 96 88 80 96 100 100 99 90 86 78 70 72 68 62 63 59 58 66 63 55 49 49 58 64
4 7 8 13 20 36 24 36 35 36 31 33 41 61 100 100 100 100 100 95 98 96 91 96 69 81 99 100 100 100 100 95 89 71 64 70 65 63 58 61 70 72 60 50 59
5 9 10 16 25 24 25 32 43 43 42 35 30 30 86 100 100 100 100 94 100 100 95 87 94 86 70 70 82 97 100 100 100 100 94 64 66 69 75 70 67 78 94 98 73
6 9 12 19 22 25 26 36 49 47 43 41 38 29 31 70 85 88 100 100 100 100 100 99 98 90 82 79 70 70 63 67 94 96 100 100 97 68 55 62 72 75 80 90 91
6 8 14 14 17 29 32 36 44 41 41 41 45 39 35 42 71 88 100 100 100 100 100 97 95 100 88 92 86 76 63 59 69 64 56 64 75 64 54 51 47 40 39 36 38
6 8 15 19 24 38 30 34 51 50 49 50 57 47 38 40 43 47 96 100 100 100 100 100 100 100 99 96 91 84 80 70 62 56 52 52 53 51 46 44 41 42 40 38 40
6 9 15 17 18 25 24 26 37 43 48 48 60 52 41 36 40 38 87 100 100 100 100 100 100 100 89 92 86 81 68 69 75 66 58 53 58 53 56 56 48 37 31 30 27
6 10 14 13 14 18 21 23 23 34 41 41 47 53 45 42 43 40 49 94 100 100 100 100 100 100 100 92 88 83 76 75 75 73 66 59 54 47 42 51 48 38 28 25 26
5 7 10 13 14 14 15 13 13 18 38 45 43 52 55 46 52 52 45 65 99 100 100 99 96 88 79 73 68 67 67 57 44 43 48 44 36 35 34 33 29 24 20 18 15
6 7 13 17 17 16 16 14 15 15 33 44 46 46 46 44 53 59 57 57 82 94 93 89 81 75 65 57 54 54 43 30 27 30 37 36 37 31 22 19 18 15 13 12 11
20 17 14 13 14 13 11 10 10 10 16 34 42 41 47 53 57 62 51 43 68 73 74 74 68 65 64 58 64 55 56 59 47 42 40 41 32 23 18 17 14 10 8 6 6
12 12 14 14 12 12 10 12 15 21 24 26 36 43 46 58 59 58 61 54 50 48 48 50 59 66 67 71 59 54 52 47 45 42 31 26 18 17 17 15 12 9 9 8 8
15 14 17 16 17 17 18 18 23 25 32 40 42 53 65 66 59 57 58 58 55 55 60 73 75 69 58 54 59 60 54 42 35 26 27 30 29 22 18 15 11 10 7 6 5
16 15 16 18 22 25 28 28 34 39 39 43 52 63 70 64 59 57 56 56 55 56 56 54 54 54 46 42 40 38 34 34 33 33 26 20 21 18 13 12 8 8 7 6 6
19 21 18 16 17 21 28 30 33 33 33 37 38 38 37 40 41 42 42 41 39 38 39 38 37 34 34 40 46 40 32 26 27 23 21 24 19 14 11 14 12 11 10 8 7
26 19 23 25 22 21 20 20 20 20 21 24 25 26 27 28 28 28 29 30 31 31 31 31 36 43 42 36 33 30 28 27 24 22 23 19 17 15 18 18 14 13 11 9 8
21 30 33 29 23 20 23 24 25 27 25 22 24 24 25 24 24 25 27 29 32 33 32 33 30 31 31 28 25 24 21 19 17 15 20 24 26 24 21 22 23 27 20 12 10
19 23 24 32 41 40 37 34 31 35 28 25 23 25 23 27 26 25 26 27 25 26 20 21 21 19 18 17 17 21 21 23 25 33 40 42 38 33 36 26 36 28 26 32 31
21 16 20 22 23 26 31 38 43 43 41 41 40 41 42 43 44 45 43 37 34 31 28 24 19 19 20 23 28 32 36 46 47 40 39 50 44 50 53 57 57 47 46 49 54
24 28 17 18 19 21 22 22 24 27 28 31 35 37 39 40 43 45 44 46 45 46 47 46 47 43 40 41 41 39 38 39 39 44 46 51 53 56 91 86 80 57 61 66 62
37 32 31 26 17 21 27 19 22 24 22 22 23 25 26 27 29 34 36 40 42 44 45 46 46 46 48 49 50 51 51 49 45 45 47 56 59 65 75 85 66 67 74 70 56
33 43 42 36 32 22 19 22 24 22 24 28 28 19 19 22 28 29 29 29 31 34 38 40 43 44 46 45 45 45 46 49 56 64 65 64 60 58 56 54 57 61 61 55 55
43 35 47 48 45 39 31 24 20 24 23 20 25 28 34 29 22 21 21 22 25 27 29 32 36 41 43 46 46 45 45 46 47 48 50 54 63 66 64 66 64 62 63 65 59
75 62 44 50 61 57 48 44 45 37 30 25 23 21 25 37 38 36 31 27 25 21 25 29 32 34 33 35 37 42 45 46 44 43 44 43 46 46 46 46 44 53 63 65 66
68 84 69 52 49 55 58 55 55 60 50 48 40 30 28 26 32 40 39 42 38 33 26 20 23 26 27 30 31 34 37 36 36 34 34 39 42 43 40 39 38 36 37 40 43
71 79 73 53 80 70 65 68 59 57 58 58 53 46 38 32 32 28 34 36 49 40 39 37 28 24 21 21 24 26 26 26 30 33 33 34 34 30 30 33 34 32 29 32 32
100 71 90 87 53 77 80 78 83 78 58 66 69 62 56 49 39 38 36 42 40 54 40 38 41 39 36 28 25 27 27 25 27 28 28 31 30 31 33 32 31 30 29 28 27
Wind_Speed
66 74 87 103 104 105 96 95 105 107 103 98 90 85 85 85 89 90 87 85 84 81 77 76 76 72 72 70 68 65 62 58 61 59 59 62 56 56 54 51 55 53 53 52 53
56 69 81 96 97 94 101 96 91 106 102 98 94 88 83 80 79 86 85 85 84 84 78 77 77 77 72 70 72 70 68 66 64 63 62 66 64 63 62 61 61 58 60 59 59
49 62 73 86 100 104 92 88 87 88 101 100 95 91 86 81 76 73 77 81 82 82 82 77 76 79 79 77 74 73 72 70 72 71 68 67 68 68 67 73 68 66 68 69 69
50 63 76 82 97 100 97 89 84 83 94 96 93 93 87 83 78 76 72 70 72 76 78 80 79 78 77 78 79 77 77 77 75 73 69 69 72 73 74 78 77 78 78 77 76
49 63 74 82 92 101 95 85 84 81 79 86 95 90 87 83 79 74 71 69 68 67 71 74 75 76 77 76 74 75 77 78 81 79 78 79 80 77 81 78 80 79 80 81 83
46 61 68 72 83 95 86 86 88 86 79 74 81 89 87 82 79 76 72 67 66 65 65 69 71 72 74 77 77 78 78 78 77 79 80 81 83 81 85 87 84 85 85 86 86
45 59 69 72 78 87 91 92 92 81 79 75 71 78 84 79 78 75 74 67 64 63 62 65 68 72 74 75 77 78 78 76 78 80 80 81 86 87 87 88 89 90 91 92 94
37 51 59 60 65 74 80 83 85 82 75 67 64 64 70 77 82 79 74 71 67 65 65 63 63 64 65 68 68 70 71 72 73 74 76 80 81 89 87 88 91 94 96 99 100
28 40 47 40 41 57 67 66 63 62 68 63 62 63 65 56 66 79 76 73 68 65 65 63 63 63 65 67 69 70 72 73 73 75 76 79 81 86 86 88 90 92 93 98 103
18 21 35 39 41 45 49 54 57 54 62 64 59 54 55 53 56 73 73 74 73 69 68 67 68 69 69 70 72 74 75 76 78 77 77 79 81 87 88 90 92 95 99 101 104
32 18 11 19 31 33 36 35 31 32 46 55 54 48 46 44 48 62 73 71 73 71 72 72 72 72 72 73 74 77 78 78 82 82 80 87 88 91 92 92 97 100 100 102 103
44 36 28 17 13 14 14 20 19 18 27 39 36 41 46 44 40 48 58 66 71 71 72 73 75 76 75 77 79 82 83 84 85 86 86 90 94 93 93 95 98 98 98 98 98
53 46 40 37 26 24 27 25 24 21 21 27 35 40 37 31 28 31 37 45 53 58 59 59 60 63 66 69 72 75 79 82 83 85 85 86 86 86 86 85 81 82 83 79 78
57 52 50 47 42 38 34 29 21 16 20 22 24 30 29 28 30 32 35 38 42 46 50 54 57 60 63 65 67 71 72 73 76 76 75 74 72 69 65 67 64 63 61 60 60
62 57 49 48 43 43 34 27 22 23 23 22 22 25 26 30 33 36 40 44 46 48 52 55 57 59 59 61 62 60 60 58 58 59 56 59 60 58 51 49 47 45 46 46 45
83 69 58 51 42 36 29 27 29 25 24 23 23 27 30 33 35 39 40 42 45 47 49 50 51 53 53 50 47 47 48 49 52 53 53 45 43 39 34 34 35 34 36 34 32
86 77 77 71 64 48 35 27 23 17 9 6 11 13 17 21 22 27 29 32 35 37 37 37 39 42 46 47 44 42 41 39 35 29 24 24 28 28 30 28 26 24 23 25 24
105 94 81 70 68 67 65 62 56 49 40 28 23 9 4 6 10 13 18 22 27 29 26 26 25 25 20 14 9 4 6 9 13 15 17 22 19 17 16 15 15 14 15 19 25
95 96 92 96 78 66 56 52 50 49 47 46 45 44 43 41 40 40 40 41 38 36 31 25 20 18 15 14 13 10 10 7 9 10 10 9 11 13 17 20 22 23 26 23 19
85 88 88 87 88 89 84 76 63 56 51 46 42 39 37 37 35 35 34 34 35 35 34 33 34 34 33 31 27 24 21 15 12 11 13 11 14 17 16 19 20 25 24 24 24
75 78 79 81 78 79 81 80 81 80 71 68 60 53 48 46 41 37 35 33 32 31 30 29 28 27 26 25 25 25 25 26 25 24 24 22 21 20 17 15 21 20 21 21 20
67 69 69 71 73 74 75 75 77 75 76 77 75 75 77 64 55 52 48 42 37 34 32 29 28 26 25 23 21 21 20 19 19 19 19 18 17 18 19 20 18 23 22 21 24
56 61 61 62 61 65 66 68 70 69 71 73 72 72 74 74 76 70 64 60 54 50 45 38 33 29 27 27 25 23 22 21 20 18 16 16 15 15 15 15 15 15 16 17 19
45 50 56 54 54 54 57 59 60 65 65 65 66 70 66 67 66 67 70 68 71 70 60 49 43 38 35 33 31 28 24 23 21 20 18 15 14 13 14 14 14 15 16 18 19
38 39 43 49 50 50 50 52 53 54 57 58 59 60 62 63 63 62 61 62 63 66 67 68 64 57 48 43 42 38 34 32 29 26 23 22 22 22 21 20 19 17 15 15 17
34 31 33 41 41 43 44 45 46 47 49 50 52 53 52 54 56 59 60 59 56 60 60 58 57 62 65 62 56 57 45 37 33 33 32 31 28 25 25 24 26 26 26 24 22
28 26 26 28 37 36 38 39 40 40 44 42 42 46 47 46 47 48 52 51 54 53 59 60 53 56 55 63 63 61 56 59 49 42 37 32 30 27 27 29 27 27 26 26 26
Wind_Direction
204 204 209 212 218 219 217 218 219 220 219 218 219 220 221 222 226 228 231 233 235 236 237 238 238 240 241 242 242 243 246 248 249 252 256 258 260 261 259 259 261 263 265 265 267
197 198 204 209 217 215 217 214 220 218 219 219 218 219 221 222 224 227 230 233 236 238 238 240 240 240 242 244 244 246 248 249 250 252 252 256 258 261 261 260 259 261 263 265 264
191 192 198 204 211 215 215 212 216 218 217 219 219 219 221 223 225 228 231 234 236 238 240 241 242 243 244 244 245 247 249 250 251 254 255 255 259 261 261 263 262 261 265 266 265
180 185 194 199 208 215 214 208 211 215 216 217 220 220 221 223 226 228 230 231 234 238 240 242 244 245 246 248 248 249 251 251 251 253 257 258 259 261 261 261 264 263 263 263 264
179 182 192 198 205 212 212 206 209 215 214 218 220 222 221 223 224 227 230 234 236 237 242 243 244 246 248 251 253 254 254 254 254 257 257 258 259 261 263 264 263 264 265 265 264
180 180 189 195 202 211 213 209 211 210 214 217 220 221 222 223 226 228 230 233 235 238 240 242 243 247 249 252 254 256 258 259 259 260 260 261 262 262 264 263 262 264 266 266 266
176 182 187 192 197 206 211 211 213 210 212 216 218 220 222 224 226 229 230 232 234 237 237 241 244 246 249 251 254 258 261 262 262 262 263 265 266 263 263 265 266 266 266 266 266
168 181 189 193 196 204 211 215 215 211 210 215 217 222 223 228 229 230 230 232 234 236 239 243 245 246 249 252 256 259 261 263 262 264 265 266 267 267 266 267 267 267 268 268 268
155 178 187 191 192 205 213 215 219 210 208 214 219 223 226 233 232 228 229 232 235 237 240 245 249 252 255 257 260 261 262 263 264 265 265 266 268 271 271 270 268 269 270 268 267
110 152 162 185 189 198 206 210 218 215 209 214 217 220 228 237 237 229 230 232 235 240 243 248 252 254 257 261 264 266 268 269 270 271 273 273 274 273 271 268 267 265 264 266 265
80 99 152 180 189 195 202 204 211 209 201 211 216 221 228 239 242 234 231 236 238 243 246 251 254 258 261 264 265 266 267 267 269 270 270 270 269 270 270 271 268 268 268 268 270
81 89 90 101 147 155 130 110 135 132 158 196 205 219 227 240 243 238 238 241 243 247 251 256 257 260 264 265 265 265 267 268 267 267 267 269 270 271 271 269 268 270 272 273 274
67 73 78 85 90 89 91 100 109 130 148 173 201 214 224 230 231 233 236 241 245 248 250 252 255 259 262 263 262 263 263 264 266 269 271 271 272 274 277 278 280 279 279 280 280
62 76 81 86 88 91 86 94 67 97 128 155 185 202 216 228 237 241 243 246 249 249 251 253 256 260 263 264 266 267 268 269 271 271 274 277 280 281 283 283 282 283 284 282 281
57 63 73 85 96 97 99 111 129 140 150 161 182 195 207 220 228 234 238 243 247 248 250 253 257 261 263 264 267 268 269 271 273 278 283 283 282 281 281 281 284 287 287 289 290
62 62 63 68 75 86 104 127 150 155 164 178 192 204 214 222 231 237 241 246 248 252 255 259 262 263 264 266 271 274 277 278 280 282 280 278 278 284 287 289 287 284 286 292 294
59 65 68 70 72 73 77 83 90 90 108 165 223 235 242 243 251 255 259 259 261 264 266 267 269 271 270 274 278 279 278 276 274 273 277 281 287 292 291 294 293 285 292 301 311
51 57 61 62 67 66 68 72 75 77 81 82 78 78 252 284 281 275 274 268 268 266 264 258 252 259 264 263 261 291 301 286 291 292 285 281 295 306 331 348 0 350 344 338 329
48 52 55 57 65 67 70 73 75 75 76 75 73 73 75 76 77 78 76 78 79 81 80 79 80 83 78 74 64 47 29 344 318 299 320 308 350 6 2 359 7 359 358 0 352
41 46 51 52 55 60 62 63 65 67 68 70 72 74 75 74 72 70 68 67 66 65 66 67 67 66 68 69 68 66 64 65 60 53 45 39 14 14 4 357 359 359 4 4 0
42 41 45 48 50 51 53 56 58 62 65 65 63 63 63 66 67 65 64 62 61 59 58 57 58 61 64 63 62 60 57 55 55 54 54 46 30 21 6 349 1 2 356 358 2
39 40 42 43 45 44 49 49 50 52 54 55 58 60 63 62 63 62 61 59 56 53 51 51 53 54 54 55 54 52 50 49 47 44 40 35 32 32 34 37 32 29 14 13 18
36 37 39 41 43 41 44 43 46 48 48 50 50 49 51 57 60 62 63 59 58 55 53 49 45 43 42 41 39 39 38 37 36 34 29 23 14 8 5 5 2 5 10 14 14
31 33 34 36 39 41 42 43 43 41 42 44 46 46 45 46 49 51 50 51 52 53 54 53 52 51 46 41 36 32 26 22 19 19 17 14 13 7 3 357 357 356 349 347 355
29 30 30 29 31 35 37 36 39 40 38 38 41 42 43 42 41 42 44 48 47 47 50 53 54 53 52 49 46 43 40 37 31 24 13 2 358 356 356 356 355 355 355 354 357
17 23 26 26 25 26 28 31 34 36 33 35 34 35 38 41 40 36 34 34 38 39 42 42 47 45 44 46 48 43 43 41 36 34 31 26 18 11 5 0 353 354 354 353 353
360 14 18 19 21 19 18 22 27 27 27 29 30 29 30 33 34 37 33 31 31 30 29 33 36 34 39 34 35 39 38 39 40 39 34 35 32 24 22 18 13 10 6 5 5